{"data":{"norad_id":67600,"intl_designator":"2026-018M","name":"STARLINK-36640","alt_names":[],"object_type":"PAYLOAD","status":"ACTIVE","operator":null,"country":"US","launch_date":"2026-01-29","launch_site_code":"AFWTR","launch_vehicle":null,"mission":null,"orbit_class":"UNKNOWN","rcs_meters":null,"size_class":null,"mass_kg":null,"dimensions":null,"purposes":["comms"],"wikipedia_slug":null,"has_3d_model":false,"image_url":null,"decayed_at":null,"tle_current":{"epoch":"2026-09-19T04:01:54.814656Z","epoch_age_seconds":184010,"freshness":"STALE","line1":"1 67600U 26018M   26262.16799554  .00019165  00000+0  59422-3 0  9996","line2":"2 67600  97.2858 325.6014 0001357 112.9196 247.2190 15.33458564 36981","mean_motion":15.33458564,"eccentricity":0.0001357,"inclination_deg":97.2858,"raan_deg":325.6014,"arg_perigee_deg":112.9196,"mean_anomaly_deg":247.219,"bstar":0.00059422,"rev_number":3698,"period_min":93.905374022222,"perigee_km":464.57413593141,"apogee_km":466.43149977798,"semimajor_km":6843.6398178547,"source":"CELESTRAK","updated_at":"2026-09-20T09:00:43.604201Z"}}}